DW7262 La Rochelle FR current weather conditions

sailwx.info

Wind from 224

Air temperature 20.0° C
Dewpoint 15.6° C

Last reported at 2016-Aug-26 22:34 UTC.
Time now 2016-Aug-26 23:27 UTC

Location: N 45°57' W 001°22'.
View on Google Maps.

See reports from other nearby stations

  
Tides and Currents Weather Stations Pressure Air Temp Water Temp Dewpoint Dewpoint Depression Visibility Wind Speed Wind Dir Waves Ship Positions
date/time (UTC)wind fromknots sea level pressurealtimeterstation pressurevisibilityair tempwater tempwave heightnotes
2016-Aug-26 22:34 224 20.0
2016-Aug-26 22:24 224 20.0
2016-Aug-26 22:03 225 20.6
2016-Aug-26 21:53 226 20.6
2016-Aug-26 21:30 268 20.6
2016-Aug-26 21:20 287 20.6
2016-Aug-26 21:09 283 20.6
2016-Aug-26 20:59 253 20.6
2016-Aug-26 20:49 256 20.6
2016-Aug-26 20:27 246 20.6
2016-Aug-26 20:17 253 21.1
2016-Aug-26 19:30 214 0 gusting 4 21.1
2016-Aug-26 19:20 246 21.1
2016-Aug-26 18:58 222 21.1
2016-Aug-26 18:37 197 22.2
2016-Aug-26 18:27 211 22.2
2016-Aug-26 17:52 180 0 gusting 4 23.3
2016-Aug-26 17:42 172 23.9
2016-Aug-26 17:32 165 24.4
2016-Aug-26 17:10 280 23.3
2016-Aug-26 16:48 134 23.3
2016-Aug-26 16:37 219 1 gusting 4 23.3
2016-Aug-26 16:27 180 0 gusting 3 23.3
2016-Aug-26 16:06 229 1 gusting 6 23.3
2016-Aug-26 15:56 211 0 gusting 6 23.3
2016-Aug-26 15:47 203 1 gusting 4 23.3
2016-Aug-26 15:12 287 3 gusting 7 22.8
2016-Aug-26 14:38 271 3 gusting 10 23.3
2016-Aug-26 14:28 211 4 gusting 10 23.3
2016-Aug-26 14:06 287 4 gusting 7 23.3
2016-Aug-26 08:45 049 1 gusting 6 23.9
2016-Aug-26 08:36 026 3 gusting 6 23.3
2016-Aug-26 08:25 046 2 gusting 6 23.3
2016-Aug-26 08:16 029 2 gusting 7 22.8
2016-Aug-26 07:41 358 2 gusting 7 21.7
2016-Aug-26 07:31 023 2 gusting 6 21.7
2016-Aug-26 07:21 326 1 gusting 3 21.7
2016-Aug-25 15:52 238 29.4
2016-Aug-25 15:41 257 29.4
2016-Aug-25 15:31 271 1 gusting 3 29.4
2016-Aug-25 15:21 260 0 gusting 3 30.0
2016-Aug-25 14:47 233 0 gusting 3 32.2
2016-Aug-25 14:38 177 32.2
2016-Aug-25 14:27 197 31.7
2016-Aug-25 14:18 217 31.1
2016-Aug-25 13:55 250 0 gusting 3 29.4
2016-Aug-25 13:33 293 1 gusting 6 29.4
2016-Aug-25 13:23 245 1 gusting 4 29.4
2016-Aug-25 13:12 277 1 gusting 4 28.9
2016-Aug-25 13:03 270 1 gusting 4 29.4